Regional Weather Roundup
Issued by NWS

Home | Current Version | Previous Version | Graphics & Text | Print | Product List | Glossary On
Versions: 1 2 3 4 5 6 7 8 9 10 11 12 13 14 15 16 17 18 19 20 21 22 23 24 25 26 27
000
ASUS45 KBOU 230107
RWRCO

WEATHER ROUNDUP FOR COLORADO
NATIONAL WEATHER SERVICE DENVER/BOULDER CO
700 PM MDT THU JUN 22 2017

NOTE: "FAIR" INDICATES FEW OR NO CLOUDS BELOW 12000 FEET WITH NO
SIGNIFICANT WEATHER AND/OR OBSTRUCTIONS TO VISIBILITY.

COZ001>005-013-030-031-230200-
...NORTHWEST COLORADO...

CITY           SKY/WX    TMP DP  RH WIND       PRES   REMARKS
CRAIG          FAIR      86  23  10 NW15G26   29.97R
HAYDEN         FAIR      84  27  12 NW16G24   30.00R
MEEKER         FAIR      72  51  47 MISG      30.03R
RABBIT EARS PA CLOUDY    55  36  47 S7        30.33F
STEAMBOAT SPGS FAIR      81  32  17 W12G17    30.01S
WALDEN         FAIR      73  18  12 W18G28    30.13S
$$

COZ006>008-011-230200-
...WEST CENTRAL VALLEYS...

CITY           SKY/WX    TMP DP  RH WIND       PRES   REMARKS
GRAND JUNCTION FAIR      93  33  12 SW7       29.85F
MONTROSE       FAIR      88  33  14 N17       29.96R
EAGLE          PTSUNNY   77  37  24 N9G26     30.08R
RIFLE          FAIR      87  41  19 N6        29.93F
DELTA          FAIR      94  28   9 W14G21    29.89S
NUCLA          FAIR      95  23   7 NW12G17   29.98S
$$

COZ017>023-064>068-230200-
...SOUTHWEST COLORADO...

CITY           SKY/WX    TMP DP  RH WIND       PRES   REMARKS
DURANGO        FAIR      89   8   5 NW13      30.00F
CORTEZ         FAIR      93  14   5 W14       29.94S
PAGOSA SPRINGS FAIR      86  -2   3 W15       30.10F
TELLURIDE      FAIR      77  18  11 NW6       30.27R
WOLF CREEK PAS PTSUNNY   63  16  16 SW15G24   30.52S
$$

COZ009-010-012-014-032>034-037-058>063-230200-
...CENTRAL COLORADO...

CITY           SKY/WX    TMP DP  RH WIND       PRES   REMARKS
ASPEN          FAIR      72  34  24 N9G21     30.15R
BUENA VISTA    PTSUNNY   75  29  18 NW25G46   30.13R
COPPER MTN     PTSUNNY   55  30  38 NW13      30.50R
BERTHOUD PASS  DRIZZLE   41  28  60 W37G66    30.50S
COTTONWOOD PAS PTSUNNY   73  18  12 CALM      30.29R
GUNNISON       FAIR      80  33  18 N20G28    30.09R
KREMMLING      NOT AVBL
LEADVILLE      FAIR      64  29  26 NW5       30.31S
MONARCH PASS   CLOUDY    61  21  21 SW21G39   30.58R
SALIDA         FAIR      86  18   8 W12       30.13R
SUNLIGHT       FAIR      57  30  35 SW13G24   30.39F
WILKERSON PASS FAIR      55  32  41 N12G20    30.45R
$$

COZ069>075-230200-
...SAN LUIS VALLEY/SANGRE DE CRISTO MOUNTAINS...

CITY           SKY/WX    TMP DP  RH WIND       PRES   REMARKS
ALAMOSA        FAIR      80  33  18 VRB3      30.05F
DEL NORTE      FAIR      84  24  11 NW23G33   30.10R
LA VETA PASS   FAIR      66  28  24 W8        30.43R
SAGUACHE       FAIR      82  25  12 N14G30    30.10R
$$

COZ035-036-038>040-230200-
...NORTHERN COLORADO FRONT RANGE...

CITY           SKY/WX    TMP DP  RH WIND       PRES   REMARKS
DENVER INTL AP PTSUNNY   76  51  41 E10       29.96F
DMNS CITY PARK   N/A     74  46  37 NW3       29.96S
AURORA         PTSUNNY   73  50  43 E8        29.96F
FRONT RANGE AP FAIR      75  54  46 E9G16     29.97F
ERIE MUNI ARPT FAIR      74  42  31 N5        29.96R
BOULDER MUN AP FAIR      72  54  53 N7        29.97R
CENTENNIAL     PTSUNNY   75  49  39 CALM      29.99F
BROOMFIELD     FAIR      72  45  37 NE5       29.99S
FORT COLLINS   FAIR      80  45  28 SE8       29.95S
LONGMONT       FAIR      72  58  62 S7        29.94F
$$

COZ041-046-047-076>085-087-088-230200-
...PIKES PEAK/PALMER DIVIDE AND SOUTHERN FOOTHILLS...

CITY           SKY/WX    TMP DP  RH WIND       PRES   REMARKS
COLO. SPRINGS  PTSUNNY   80  48  32 NE18      30.03R
A. F. ACADEMY  FAIR      74  49  40 N12       30.06S
SCHRIEVER AFB  NOT AVBL
CHEYENNE MTN   NOT AVBL
ELLICOTT       FAIR     N/A N/A N/A NE14G21   30.01R
FALCON           N/A     76  43  30 NE9       30.10S
FORT CARSON    FAIR      79  49  35 N15G25    29.98R
LIMON          FAIR      77  50  38 E13G21    29.96R
MONUMENT HILL  FAIR      68  46  45 CALM      30.11F
CANON CITY     SUNNY     86  48  26 NE16G31   29.92R
WALSENBURG     FAIR      82  41  23 E7        29.97R
TRINIDAD       FAIR      80  43  26 NE29G38   29.93R
$$

COZ042>045-048>051-090-091-230200-
...NORTHEAST COLORADO...

CITY           SKY/WX    TMP DP  RH WIND       PRES   REMARKS
GREELEY ARPT   FAIR      78  53  41 E10       29.93F
AKRON          FAIR      77  52  41 NE15      29.94R
BURLINGTON     FAIR      78  59  51 NE9       29.89F
WRAY           FAIR      79  54  41 NE13      29.90R
YUMA           FAIR      77  54  44 NE14      29.91R
STERLING       FAIR      77  55  47 NE12G17   29.91F
HOLYOKE        NOT AVBL
FORT MORGAN    FAIR      75  50  42 E9        29.94F
$$

COZ086-089-092>099-230200-
...SOUTHEAST COLORADO...

CITY           SKY/WX    TMP DP  RH WIND       PRES   REMARKS
PUEBLO         FAIR      84  48  28 NE24G30   29.90R
LA JUNTA       FAIR      83  47  28 NE16G29   29.85R
LAMAR          FAIR      80  51  36 NE25G33   29.76F
SPRINGFIELD      N/A     78  55  44 NE32G44   29.82F
$$




USA.gov is the U.S. government's official web portal to all federal, state and local government web resources and services.